Location: Chillicothe
(39.7950°N, 93.5520°W)
Time: 10:50:13
(UTC-06:00)

Vanguard 3 - Pass Details

Date: 22 October 2019
Orbit: 508 x 3263 km, 33.4° (Epoch: 20 November)

Event Time Altitude Azimuth Distance (km) Brightness Sun altitude
Rises 05:51:26 0° 258° (WSW) 3,032 - -19.9°
Reaches altitude 10° 05:54:29 10° 233° (SW) 2,408 - -19.3°
Exits shadow 05:56:09 14° 215° (SW) 2,310 9.1 -19.0°
Maximum altitude 05:57:39 15° 199° (SSW) 2,394 9.3 -18.7°
Drops below altitude 10° 06:01:40 10° 166° (SSE) 3,216 10.4 -18.0°
Sets 06:06:57 0° 147° (SSE) 4,815 11.6 -16.9°
